Showing default

ARSAT 1, 40272

Orbit data source: Space-Track

ARSAT 1, 40272 is a payload satellite owned by AR-SAT (AR) in GEO that was launched on Thu, 16 Oct 2014 UTC via an ARIANE 5ECA launch vehicle from the French Guiana (FRGUI). Payload-class satellites include a variety of spacecraft equipped with specific instruments for various scientific and technological missions. These include communications satellites like Starlink; space stations such as the ISS; scientific satellites like the Hubble; Earth observation satellites from companies like Planet Labs, Umbra, and HawkEye 360; GPS; miniature CubeSats for education and research; and military/defense satellites.

Loading next visibility...
Identifier
40272, 2014-062B
Orbit
GEO
Country
Flag of ARAR / ARGN
Related business
Manufacturer
INVAP
Mission
Operational Commercial Communications
Bus & Motor
ARSAT-BUS, S400
Mass
2,983 kg wet, ~2,000 kg dry
Launch date (UTC)
2014-10-16 (12 years ago)
Launch vehicle
ARIANE 5ECA
Launch site
French Guiana (FRGUI)
Object type
Payload
Rocket body
Debris
Shape & HBR
Box + 2 Pan, 8.2 m
Radar Cross Section
17.571 m², Large (>1 m²)

Expand to show TLE details & history
Last TLE update: 2 days ago

TLE from 2 days ago
0 ARSAT 1
1 40272U 14062B   26171.37777042 -.00000264  00000-0  00000+0 0  9994
2 40272   0.0120   4.0555 0001844  74.6952 254.0256  1.00272447 42657
Epoch: 2026-06-20T09:03Z
TLE epoch observation values (Epoch: 2026-06-20T09:03:59.364Z)
Latitude
-0.0158°
Longitude
-71.82239°
Altitude
35,788.06 km
Speed
3.075 km/s
True Right ascension
22h 11m 04s
True Declination
0° 00' 57"
Sunlit
Object was in daylight at epoch
Visualization orbit readout
Latitude
Unknown
Longitude
Unknown
Altitude
Unknown
Speed
Unknown
Apparent Right ascension
Unknown
Apparent Declination
Unknown
Sunlit
N/A
Visualization observer readout
Local Sidereal Time
21:40:11
Azimuth
Unknown
Elevation
Unknown
Doppler factor
Unknown
Orbital elements
Apogee altitude
35,795.255 km
Perigee altitude
35,779.704 km
Semi-major axis
42,165.617 km
Eccentricity
0.00018
Inclination
0.012°
RAAN
4.0555°
Arg. of periapsis
74.6952°
True anomaly
254.00529°
Mean anomaly
254.0256°
Eccentric anomaly
254.01544°
Mean motion
0.25067 °/min
Orbital period
1,436.14 mins
BSTAR
0
Loading maneuver chart data...
Computing Atmospheric mass density...
Loading historical data...
Loading historical data...
Loading historical data...
Loading historical data...
Loading historical data...
Loading historical data...
Loading historical data...
Other satellites on launch #62 in the year 2014 (2014-10-16 UTC)

Documentation

Showing up to 5 results
|